Regional Weather Roundup
Issued by NWS

Home | Current Version | Previous Version | Text Only | Print | Product List | Glossary On
Versions: 1 2 3 4 5 6 7 8 9 10 11 12 13 14 15 16 17 18 19 20 21 22 23 24 25 26 27 28 29 30 31 32 33 34 35 36 37 38 39 40 41 42 43 44 45 46 47 48 49 50
000
ASUS44 KFWD 101515
RWRTX
NORTH TEXAS HOURLY WEATHER ROUNDUP
NATIONAL WEATHER SERVICE FORT WORTH TX
900 AM CST SAT DEC 10 2016

NOTE: "FAIR" INDICATES FEW OR NO CLOUDS BELOW 12,000 FEET WITH NO
SIGNIFICANT WEATHER AND/OR OBSTRUCTIONS TO VISIBILITY.

TXZ118-119-101600-
DALLAS/FORT WORTH METROPLEX

CITY           SKY/WX    TMP DP  RH WIND       PRES   REMARKS
DFW AIRPORT    CLOUDY    40  24  53 S15       30.44S WCI  32
DALLAS LOVE    CLOUDY    40  25  55 S13       30.47R WCI  32
FTW MEACHAM    CLOUDY    39  25  57 SE13      30.44S WCI  31
DAL-EXECUTIVE  CLOUDY    38  27  64 SE12      30.45S WCI  30
FTW-ALLIANCE   CLOUDY    39  24  55 S13G21    30.43S WCI  31
FTW-NAS-JRB    CLOUDY    39  25  57 SE13      30.45S WCI  31
FTW-SPINKS     PTSUNNY   39  27  60 SE10      30.46S WCI  32
ARLINGTON      CLOUDY    39  25  57 SE13      30.46R WCI  31
GRAND PRAIRIE  CLOUDY    39  25  56 SE9G16    30.47S WCI  33
ADDISON        CLOUDY    39  27  60 MISG      30.46S
MESQUITE       CLOUDY    37  27  65 SE9       30.48S WCI  31
LANCASTER      CLOUDY    39  27  62 SE8       30.49R WCI  33
$$

TXZ091>094-102>105-117-120-121-131>134-101600-
NORTH CENTRAL TEXAS

CITY           SKY/WX    TMP DP  RH WIND       PRES   REMARKS
SHRMAN/DENISON CLOUDY    39  28  63 SE9G17    30.47R WCI  33
GAINESVILLE    CLOUDY    38  25  60 SE8       30.45R WCI  32
BOWIE          CLOUDY    39  25  57 S9G17     30.40S WCI  33
BRIDGEPORT     CLOUDY    37  27  67 SE8       30.44R WCI  31
DECATUR        CLOUDY    37  23  56 SE12      30.41R WCI  29
DENTON         CLOUDY    39  26  59 SE10      30.44R WCI  32
MCKINNEY       CLOUDY    38  27  64 SE12      30.46S WCI  30
BONHAM         CLOUDY    37  25  60 SE13      30.48R WCI  29
GREENVILLE       N/A     39  27  60 SE9       30.49S WCI  33
ROCKWALL       CLOUDY    38  26  62 E9G16     30.48R WCI  31
TERRELL        CLOUDY    39  24  55 SE10      30.49R WCI  32
WAXAHACHIE     CLOUDY    37  28  70 SE7       30.47S WCI  32
CLEBURNE       CLOUDY    39  27  60 SE10      30.45S WCI  32
GRANBURY       CLOUDY    40  29  65 SE10      30.44S WCI  33
$$

TXZ083>090-098>101-113>116-127>130-139>142-154-155-101600-
WESTERN NORTH TEXAS

CITY           SKY/WX    TMP DP  RH WIND       PRES   REMARKS
WICHITA FALLS  CLOUDY    40  23  50 S13       30.36S WCI  32
WF-KICKAPOO    CLOUDY    40  23  51 S16G23    30.37F WCI  31
VERNON         SUNNY     35  23  61 S13       30.32F WCI  26
ABILENE        MOSUNNY   38  28  67 S10       30.32S WCI  31
ABILENE-DYESS  SUNNY     38  25  59 S12       30.29F WCI  31
CISCO          CLOUDY    36  25  64 S16       30.35R WCI  26
BRECKENRIDGE   CLOUDY    38  24  57 S12       30.36S WCI  31
GRAHAM         PTSUNNY   38  26  64 SE10      30.36S WCI  30
MINERAL WELLS  CLOUDY    37  26  64 SE12      30.40R WCI  29
STEPHENVILLE   CLOUDY    38  26  61 S10       30.42R WCI  31
COMANCHE       CLOUDY    38  27  64 S8        30.39S WCI  32
BROWNWOOD      CLOUDY    37  23  56 S10       30.39S WCI  30
COLEMAN        CLOUDY    37  27  66 S8        30.36R WCI  31
$$

TXZ143>147-156>162-174-175-101600-
CENTRAL TEXAS

CITY           SKY/WX    TMP DP  RH WIND       PRES   REMARKS
WACO           CLOUDY    40  27  59 SE10      30.47R WCI  33
WACO-TSTC      CLOUDY    39  30  70 CALM      30.48S
WACO-MCGREGOR  CLOUDY    40  28  62 SE10      30.47R WCI  33
HILLSBORO      CLOUDY    38  31  73 SE12      30.46S WCI  31
CORSICANA      CLOUDY    40  29  64 SE12      30.50R WCI  33
MEXIA          CLOUDY    38  27  64 S9        30.48R WCI  31
HEARNE         CLOUDY    40  29  66 SE6       30.51R HAZE    WCI  35
CAMERON        CLOUDY    41  30  65 SE3       30.49R
TEMPLE         CLOUDY    41  28  60 SE9       30.47R WCI  35
KILLEEN        CLOUDY    39  28  65 SE12      30.43R WCI  32
KILLEEN-SKYLRK CLOUDY    41  28  60 SE8       30.45R WCI  36
FORT HOOD      CLOUDY    41  28  59 SE8       30.41S WCI  35
GATESVILLE     CLOUDY    39  28  65 SE7       30.46R WCI  34
HAMILTON       CLOUDY    39  29  68 S9        30.42R WCI  32
LAMPASAS       CLOUDY    40  32  74 SE5       30.41S WCI  36
$$

TXZ095>097-106>112-122>126-135>138-148>153-164>167-101600-
EAST TEXAS

CITY           SKY/WX    TMP DP  RH WIND       PRES   REMARKS
PARIS          CLOUDY    37  25  60 SE14      30.50R WCI  29
SULPHUR SPRNGS CLOUDY    39  25  57 SE10G17   30.52S WCI  32
MOUNT PLEASANT PTSUNNY   37  27  67 SE8       30.54S WCI  30
GILMER         CLOUDY    35  25  67 SE7       30.53R WCI  29
MINEOLA        CLOUDY    37  25  60 SE5       30.51S WCI  34
TYLER          CLOUDY    38  24  57 SE12      30.50S WCI  30
LONGVIEW       PTSUNNY   35  27  72 SE9       30.53S WCI  28
MARSHALL       CLOUDY    33  26  75 SE3       30.57R
ATHENS         CLOUDY    36  25  64 SE8       30.49S WCI  29
PALESTINE      CLOUDY    37  30  75 E7        30.52S WCI  32
JACKSONVILLE   CLOUDY    36  28  73 SE5       30.52S WCI  32
HENDERSON      CLOUDY    35  27  70 SE6       30.54S WCI  30
CENTER         MOSUNNY   37  29  72 E5        30.56R WCI  34
NACOGDOCHES    CLOUDY    36  27  69 SE8       30.51S WCI  29
LUFKIN         CLOUDY    36  30  79 SE9       30.52R WCI  29
$$

SUPPLEMENTAL OBSERVATIONS (CENTRAL)

CITY           SKY/WX    TMP DP  RH WIND       PRES   REMARKS
DENISON DAM      N/A     39  25  56 SE8         N/A  WCI  34
CADDO GRASSLND   N/A     39  27  60 SE7         N/A  WCI  34
PAT MAYSE LAKE   N/A     37  25  60 E8          N/A  WCI  31
GREENVILLE       N/A     39  27  60 SE9         N/A  WCI  33
CEDAR HILL       N/A     39  25  56 SE9         N/A  WCI  33
ATHENS           N/A     37  23  56 SE12        N/A  WCI  30
LAKE LIMESTONE   N/A     37  30  75 E6          N/A  WCI  33
MCGREGOR         N/A     41  28  60 S8          N/A  WCI  36
TEMPLE           N/A     39  30  70 SE7         N/A  WCI  34
$$

SUPPLEMENTAL OBSERVATIONS (WEST)

CITY           SKY/WX    TMP DP  RH WIND       PRES   REMARKS
MILLERS CREEK    N/A     37  30  75 S15         N/A  WCI  28
POSSUM KINGDOM   N/A     37  23  56 S13         N/A  WCI  29
LBJ GRASSLAND    N/A     37  23  56 CALM        N/A
GRANBURY         N/A     39  28  65 SE10        N/A  WCI  32
COMANCHE         N/A     37  27  65 S10         N/A  WCI  30
HAMBY            N/A     39  28  65 S8          N/A  WCI  34
IVIE RESERVOIR   N/A     39  27  60 SE10        N/A  WCI  32
COLORADO BEND    N/A     41  27  56 SW7         N/A  WCI  36
$$

SUPPLEMENTAL OBSERVATIONS (EAST)

CITY           SKY/WX    TMP DP  RH WIND       PRES   REMARKS
CLARKSVILLE      N/A     37  27  65 SE9         N/A  WCI  31
TEXARKANA        N/A     37  27  65 SE6         N/A  WCI  33
LINDEN           N/A     36  27  69 SE3         N/A
GILMER           N/A     37  27  65 SE6         N/A  WCI  33
HENDERSON        N/A     36  27  69 E6          N/A  WCI  31
LUFKIN           N/A     37  30  75 MISG        N/A
N SABINE NF      N/A     34  32  93 MISG        N/A
S SABINE NF      N/A     39  28  65 SE3         N/A
$$

SUPPLEMENTAL OBSERVATIONS ARE A COLLECTION OF AUTOMATED INSTRUMENTS
THAT ARE MAINTAINED BY A VARIETY OF FEDERAL AND STATE AGENCIES.
CERTAIN ELEMENTS...SUCH AS HUMIDITY VALUES AND SUSTAINED WIND
SPEEDS...MAY BE APPROXIMATED.





USA.gov is the U.S. government's official web portal to all federal, state and local government web resources and services.